| time (UTC) | temp F | wind direction | speed knots | gust knots | rain 1hr in | rain 24hr in | rain mn in | humidity % | barometer mb |
| 20260502123102 | 39 | 281 | 7.0 | 16.5 | 0.00 | 0.01 | 0.01 | 73 | 1011.2 |
| 20260502121505 | 38 | 252 | 6.1 | 9.6 | 0.00 | 0.01 | 0.01 | 75 | 1010.9 |
| 20260502114551 | 37 | 163 | 3.5 | 9.6 | 0.00 | 0.01 | 0.01 | 79 | 1010.6 |
| 20260502113041 | 37 | 152 | 5.2 | 13.9 | 0.00 | 0.01 | 0.01 | 80 | 1010.4 |
| 20260502111559 | 37 | 234 | 5.2 | 12.2 | 0.00 | 0.01 | 0.01 | 81 | 1010.2 |
| 20260502110052 | 37 | 148 | 4.3 | 15.6 | 0.00 | 0.01 | 0.01 | 81 | 1010.1 |
| 20260502104546 | 36 | 198 | 3.5 | 10.4 | 0.00 | 0.01 | 0.01 | 83 | 1009.7 |
| 20260502103101 | 36 | 229 | 3.5 | 13.9 | 0.00 | 0.01 | 0.01 | 84 | 1009.9 |
| 20260502101602 | 35 | 249 | 3.5 | 9.6 | 0.00 | 0.01 | 0.01 | 87 | 1009.4 |
| 20260502070053 | 38 | 188 | 4.3 | 12.2 | 0.00 | 0.00 | 0.00 | 82 | 1006.9 |
| 20260502064548 | 38 | 204 | 7.0 | 11.3 | 0.00 | 0.00 | 0.00 | 80 | 1006.8 |
| 20260502063059 | 39 | 176 | 5.2 | 14.8 | 0.00 | 0.00 | 0.00 | 78 | 1006.5 |
| 20260502061551 | 39 | 154 | 6.1 | 15.6 | 0.00 | 0.00 | 0.00 | 75 | 1006.1 |
| 20260502060044 | 40 | 136 | 5.2 | 14.8 | 0.00 | 0.00 | 0.00 | 74 | 1006.0 |
| 20260502054559 | 40 | 148 | 5.2 | 13.0 | 0.00 | 0.00 | 0.00 | 73 | 1006.1 |
| 20260502053048 | 41 | 165 | 0.9 | 7.0 | 0.00 | 0.00 | 0.00 | 71 | 1006.3 |
| 20260502051545 | 41 | 176 | 3.5 | 10.4 | 0.00 | 0.00 | 0.00 | 70 | 1006.4 |
| 20260502050056 | 41 | 108 | 1.7 | 4.3 | 0.00 | 0.00 | 0.00 | 65 | 1006.4 |
| 20260502044557 | 41 | 124 | 2.6 | 7.0 | 0.00 | 0.00 | 0.00 | 65 | 1006.7 |
| 20260502043051 | 42 | 125 | 2.6 | 6.1 | 0.00 | 0.00 | 0.00 | 62 | 1006.2 |
| 20260502041600 | 42 | 200 | 0.9 | 6.1 | 0.00 | 0.00 | 0.00 | 62 | 1006.3 |
| 20260502040059 | 42 | 136 | 0.9 | 7.0 | 0.00 | 0.00 | 0.00 | 64 | 1005.7 |
| 20260502034549 | 42 | 145 | 3.5 | 9.6 | 0.00 | 0.00 | 0.00 | 64 | 1005.8 |
| 20260502033045 | 43 | 134 | 2.6 | 11.3 | 0.00 | 0.00 | 0.00 | 64 | 1006.3 |
| 20260502031601 | 43 | 188 | 4.3 | 10.4 | 0.00 | 0.00 | 0.00 | 62 | 1006.6 |
| 20260502030050 | 44 | 193 | 7.8 | 15.6 | 0.00 | 0.00 | 0.00 | 59 | 1006.6 |
| 20260502024508 | 44 | 174 | 2.6 | 5.2 | 0.00 | 0.00 | 0.00 | 53 | 1006.9 |
| 20260502023059 | 44 | 119 | 2.6 | 8.7 | 0.00 | 0.00 | 0.00 | 56 | 1007.0 |
| 20260502021552 | 44 | 160 | 5.2 | 14.8 | 0.00 | 0.00 | 0.00 | 59 | 1007.1 |
| 20260502020048 | 44 | 180 | 6.1 | 12.2 | 0.00 | 0.00 | 0.00 | 58 | 1007.3 |
| 20260502014505 | 43 | 151 | 3.5 | 11.3 | 0.00 | 0.00 | 0.00 | 58 | 1007.9 |
| 20260502013054 | 43 | 143 | 5.2 | 13.9 | 0.00 | 0.00 | 0.00 | 57 | 1007.8 |
| 20260502011551 | 43 | 188 | 5.2 | 12.2 | 0.00 | 0.00 | 0.00 | 56 | 1008.0 |
| 20260502010002 | 44 | 148 | 3.5 | 18.2 | 0.00 | 0.00 | 0.00 | 55 | 1008.4 |
| 20260502004600 | 44 | 214 | 7.0 | 15.6 | 0.00 | 0.00 | 0.00 | 54 | 1008.6 |
| 20260502003049 | 45 | 224 | 4.3 | 16.5 | 0.00 | 0.00 | 0.00 | 51 | 1008.9 |
| 20260502001512 | 46 | 186 | 7.8 | 20.9 | 0.00 | 0.00 | 0.00 | 49 | 1008.7 |
| 20260502000106 | 47 | 249 | 7.8 | 19.1 | 0.00 | 0.00 | 0.00 | 48 | 1009.0 |
| 20260501234555 | 48 | 160 | 3.5 | 15.6 | 0.00 | 0.00 | 0.00 | 47 | 1009.4 |
| 20260501233044 | 46 | 143 | 5.2 | 21.7 | 0.00 | 0.00 | 0.00 | 49 | 1010.0 |
| 20260501231600 | 45 | 134 | 6.1 | 18.2 | 0.00 | 0.00 | 0.00 | 49 | 1010.7 |
| 20260501230052 | 45 | 133 | 7.0 | 23.5 | 0.00 | 0.00 | 0.00 | 49 | 1010.7 |
| 20260501224549 | 45 | 192 | 10.4 | 18.2 | 0.00 | 0.00 | 0.00 | 49 | 1010.3 |
| 20260501223042 | 45 | 173 | 7.0 | 20.9 | 0.00 | 0.00 | 0.00 | 49 | 1010.6 |
| 20260501221602 | 44 | 252 | 7.0 | 20.0 | 0.00 | 0.00 | 0.00 | 48 | 1011.3 |
| 20260501220055 | 44 | 235 | 6.1 | 13.0 | 0.00 | 0.00 | 0.00 | 49 | 1011.4 |
| 20260501214544 | 44 | 109 | 1.7 | 6.1 | 0.00 | 0.00 | 0.00 | 48 | 1012.0 |
| 20260501213104 | 44 | 87 | 0.9 | 5.2 | 0.00 | 0.00 | 0.00 | 48 | 1011.9 |
| 20260501211548 | 44 | 123 | 1.7 | 4.3 | 0.00 | 0.00 | 0.00 | 48 | 1012.3 |
| 20260501210045 | 44 | 149 | 0.9 | 4.3 | 0.00 | 0.00 | 0.00 | 48 | 1012.6 |
| 20260501204601 | 44 | 146 | 0.9 | 7.0 | 0.00 | 0.00 | 0.00 | 48 | 1012.6 |
| 20260501203049 | 43 | 77 | 1.7 | 5.2 | 0.00 | 0.00 | 0.00 | 48 | 1012.2 |
| 20260501201506 | 43 | 160 | 1.7 | 9.6 | 0.00 | 0.00 | 0.00 | 50 | 1012.5 |
| 20260501200057 | 43 | 160 | 3.5 | 14.8 | 0.00 | 0.00 | 0.00 | 50 | 1012.6 |
| 20260501194556 | 43 | 250 | 7.8 | 19.1 | 0.00 | 0.00 | 0.00 | 49 | 1012.7 |
| 20260501193045 | 42 | 189 | 5.2 | 11.3 | 0.00 | 0.00 | 0.00 | 49 | 1013.0 |
| 20260501191559 | 41 | 122 | 5.2 | 12.2 | 0.00 | 0.00 | 0.00 | 49 | 1013.5 |
| 20260501190055 | 41 | 212 | 1.7 | 5.2 | 0.00 | 0.00 | 0.00 | 49 | 1013.9 |
| 20260501184549 | 41 | 111 | 0.0 | 3.5 | 0.00 | 0.00 | 0.00 | 54 | 1014.1 |
| 20260501183100 | 41 | 86 | 0.9 | 4.3 | 0.00 | 0.00 | 0.00 | 53 | 1014.2 |
| 20260501181559 | 41 | 103 | 2.6 | 5.2 | 0.00 | 0.00 | 0.00 | 53 | 1014.3 |
| 20260501180051 | 40 | 82 | 0.0 | 3.5 | 0.00 | 0.00 | 0.00 | 55 | 1014.6 |
| 20260501174546 | 40 | 338 | 0.9 | 2.6 | 0.00 | 0.00 | 0.00 | 55 | 1014.7 |
| 20260501173001 | 40 | 72 | 1.7 | 6.1 | 0.00 | 0.00 | 0.00 | 53 | 1015.0 |
| 20260501171556 | 40 | 107 | 3.5 | 10.4 | 0.00 | 0.00 | 0.00 | 52 | 1015.0 |
| 20260501170055 | 39 | 55 | 0.0 | 1.7 | 0.00 | 0.00 | 0.00 | 58 | 1015.3 |
| 20260501164546 | 38 | 323 | 0.9 | 2.6 | 0.00 | 0.00 | 0.00 | 56 | 1015.7 |
| 20260501163057 | 38 | 85 | 0.0 | 6.1 | 0.00 | 0.00 | 0.00 | 55 | 1015.7 |
| 20260501161555 | 38 | 160 | 0.9 | 2.6 | 0.00 | 0.00 | 0.00 | 57 | 1015.5 |
| 20260501160048 | 38 | 105 | 0.0 | 2.6 | 0.00 | 0.00 | 0.00 | 58 | 1015.6 |
| 20260501154601 | 38 | 84 | 0.9 | 3.5 | 0.00 | 0.00 | 0.00 | 57 | 1016.0 |
| 20260501153103 | 38 | 67 | 0.9 | 1.7 | 0.00 | 0.00 | 0.00 | 57 | 1016.3 |
| 20260501151556 | 37 | 225 | 0.0 | 1.7 | 0.00 | 0.00 | 0.00 | 58 | 1016.6 |
| 20260501150002 | 37 | 60 | 0.0 | 1.7 | 0.00 | 0.00 | 0.00 | 59 | 1016.8 |
| 20260501144600 | 37 | 63 | 0.0 | 4.3 | 0.00 | 0.00 | 0.00 | 58 | 1016.8 |
| 20260501143051 | 38 | 224 | 1.7 | 6.1 | 0.00 | 0.00 | 0.00 | 55 | 1016.7 |
| 20260501141550 | 38 | 87 | 0.9 | 8.7 | 0.00 | 0.00 | 0.00 | 55 | 1016.8 |
| 20260501140100 | 38 | 184 | 5.2 | 14.8 | 0.00 | 0.00 | 0.00 | 55 | 1016.8 |
| 20260501134600 | 38 | 214 | 7.8 | 17.4 | 0.00 | 0.00 | 0.00 | 54 | 1017.1 |
| 20260501133048 | 38 | 280 | 6.1 | 11.3 | 0.00 | 0.00 | 0.00 | 56 | 1017.3 |